Regional Weather Roundup
Issued by NWS Northern Indiana

Home | Current Version | Previous Version | Graphics & Text | Print | Product List | Glossary On
Versions: 1 2 3 4 5 6 7 8 9 10 11 12 13 14 15 16 17 18 19 20 21 22 23 24 25 26 27 28 29 30 31 32 33 34 35 36 37 38 39 40 41 42 43 44 45 46 47 48 49 50
000
ASUS43 KIWX 301400
RWRIWX

KIWX WEATHER ROUNDUP
NATIONAL WEATHER SERVICE NORTHERN INDIANA
1000 AM EDT SUN AUG 30 2015

NOTE: "FAIR" INDICATES FEW OR NO CLOUDS BELOW 12,000 FEET WITH NO
SIGNIFICANT WEATHER AND/OR OBSTRUCTIONS TO VISIBILITY.

* THESE STATIONS ARE NOT UNDER NWS QUALITY CONTROL. THEY ALSO MAY NOT
  REPORT WEATHER SUCH AS PRECIPITATION OR FOG.

INZ001>027-301500-
NORTHERN INDIANA

CITY           SKY/WX    TMP DP  RH WIND       PRES   REMARKS
GARY*          CLOUDY    68  64  88 VRB3      30.09R FOG
KNOX*          CLOUDY    68  68 100 N3        30.07S VSB 1/4
SOUTH BEND     CLOUDY    68  67  96 NW5       30.08S FOG
GOSHEN         CLOUDY    69  67  93 SW3       30.07S FOG
MONTICELLO*    CLOUDY    70  70 100 S3        30.06S
WARSAW*        CLOUDY    70  68  94 CALM      30.08S FOG
ANGOLA*        MOSUNNY   73  64  73 W5        30.08S
FORT WAYNE     MOSUNNY   74  68  81 SW8       30.09S
PERU/GRISSOM   PTSUNNY   74  68  83 SW7       30.07S

$$
INZ028>050-301500-
CENTRAL INDIANA

CITY           SKY/WX    TMP DP  RH WIND       PRES   REMARKS
LAFAYETTE      SUNNY     72  66  81 S5        30.07S
KOKOMO*        SUNNY     75  66  73 SW7       30.08F
MUNCIE*        SUNNY     71  68  90 SW5       30.10R
INDIANAPOLIS   MOSUNNY   74  69  85 S3        30.08R

$$
MIZ043>046-050>051-056>058-064>065-071>073-077>080-301500-
SOUTHWEST LOWER MICHIGAN

CITY           SKY/WX    TMP DP  RH WIND       PRES   REMARKS
BATTLE CREEK   CLOUDY    69  67  93 S5        30.08S FOG
BENTON HARBOR  PTSUNNY   70  66  87 W5        30.06S
COLDWATER*     CLOUDY    70  68  94 S3        30.08S FOG
HILLSDALE*     PTSUNNY   70  70  99 CALM      30.09S FOG
HOLLAND        FOG       69  67  93 CALM      30.07R VSB 1
GRAND RAPIDS   FOG       68  67  96 E3        30.07R VSB 1/4
KALAMAZOO      CLOUDY    69  67  93 CALM      30.07S FOG
STURGIS*       CLOUDY    70  68  94 CALM      30.07S FOG
THREE RIVERS*  CLOUDY    68  68 100 CALM      30.08R FOG

$$
OHZ001>008-015>018-024>025-301500-
NORTHWEST OHIO

CITY           SKY/WX    TMP DP  RH WIND       PRES   REMARKS
DEFIANCE       SUNNY     73  68  84 SW7       30.08S HAZE
FINDLAY        MOSUNNY   74  69  85 SW8       30.08S
TOLEDO EXPRESS PTSUNNY   71  69  93 S5        30.08R FOG
TOLEDO METCALF CLOUDY    71  67  87 SE8       30.09S
LIMA           PTSUNNY   71  67  87 S7        30.10R

$$
AND FOR LAKE MICHIGAN COASTAL AND OPEN LAKE BUOY OBSERVATIONS

STATION/POSITION TEMP    WIND        PRES    VSBY  WAVE
                 AIR SEA DIR/SP/G                  HT/PER
                 (F)     (DEG/KT/KT) (MB)    (MI)  (FT/S)
MICHIGAN CITY     68     310/  5/  6   N/A
BURNS HARBOR      67     290/  1/  5 1018.6R
SAINT JOSEPH      70     260/  2/  3 1018.6S
SOUTH LAKE BUOY   67 68  350/  8/  8 1017.9R         1
4 MI NW BRIDGMAN  69 70  330/  4/  4   N/A           1/ 3
MICHIGAN CITY     68 70  350/  4/  6   N/A           1/ 3

$$
&&


USA.gov is the U.S. government's official web portal to all federal, state and local government web resources and services.